Weather History for Waterville, ME

Change the Weather History Date:

Friday, August 23, 2013

  Actual Average Record
Temperature  
Mean Temperature 65 °F -  
Max Temperature 73 °F 77 °F 89 °F (1978)
Min Temperature 55 °F 52 °F 37 °F (1982)
Growing Degree Days 15 (Base 50)    
Moisture  
Dew Point 52 °F    
Average Humidity 61    
Maximum Humidity 94    
Minimum Humidity 38    
Precipitation  
Precipitation 0.02 in - - ()
Sea Level Pressure  
Sea Level Pressure 29.93 in    
Wind  
Wind Speed 8 mph (NNW)    
Max Wind Speed 15 mph    
Max Gust Speed 22 mph    
Visibility 10 miles    
Events      
Averages and records for this station are not official NWS values.
T = Trace of Precipitation, MM = Missing Value Source: NWS Daily Summary

Daily Weather History Graph

Daily Weather History Graph

Search for Another Location

Airport:

Trip Planner

Search our weather history database for the weather conditions in past years. The results will help you decide how hot, cold, wet, or windy it might be!

Date:

Astronomy

Aug. 23, 2013 Rise Set
Actual Time 5:51 AM EDT 7:30 PM EDT
Civil Twilight 5:20 AM EDT 8:01 PM EDT
Nautical Twilight 4:42 AM EDT 8:38 PM EDT
Astronomical Twilight 4:02 AM EDT 9:18 PM EDT
Moon 8:36 PM EDT (8/23) 8:52 AM EDT (8/23)
Length of Visible Light 14h 41m
Length of Day
13h 39m
Waning Gibbous, 91% of the Moon is Illuminated
Aug 23
Waning Gibbous
Aug 28
Last Quarter
Sep 5
New
Sep 12
First Quarter
Sep 19
Full

Hourly Weather History & Observations

Time (EDT) Temp. Dew Point Humidity Pressure Visibility Wind Dir Wind Speed Gust Speed Precip Events Conditions
12:15 AM 71.6 °F 64.4 °F 78% 29.74 in 10.0 mi NW 6.9 mph - N/A   Mostly Cloudy
12:35 AM 73.4 °F 62.6 °F 69% 29.74 in 10.0 mi WNW 8.1 mph - N/A   Mostly Cloudy
12:55 AM 73.4 °F 62.6 °F 69% 29.74 in 10.0 mi WNW 6.9 mph - N/A   Mostly Cloudy
1:15 AM 71.6 °F 62.6 °F 73% 29.75 in 10.0 mi NW 8.1 mph - N/A   Overcast
1:35 AM 71.6 °F 62.6 °F 73% 29.76 in 10.0 mi NNW 6.9 mph - N/A   Mostly Cloudy
1:55 AM 69.8 °F 62.6 °F 78% 29.76 in 10.0 mi NNW 8.1 mph - N/A   Mostly Cloudy
2:15 AM 66.2 °F 62.6 °F 88% 29.76 in 10.0 mi NNW 5.8 mph - 0.02 in   Overcast
2:35 AM 66.2 °F 62.6 °F 88% 29.77 in 10.0 mi NNW 3.5 mph - 0.02 in   Overcast
2:55 AM 66.2 °F 62.6 °F 88% 29.77 in 10.0 mi NW 3.5 mph - 0.02 in   Overcast
3:15 AM 64.4 °F 62.6 °F 94% 29.77 in 10.0 mi NW 5.8 mph - N/A   Overcast
3:35 AM 64.4 °F 60.8 °F 88% 29.78 in 10.0 mi NNW 5.8 mph - N/A   Overcast
3:55 AM 64.4 °F 60.8 °F 88% 29.78 in 10.0 mi North 5.8 mph - N/A   Scattered Clouds
4:15 AM 64.4 °F 60.8 °F 88% 29.78 in 10.0 mi NNW 6.9 mph - N/A   Partly Cloudy
4:35 AM 62.6 °F 60.8 °F 94% 29.79 in 10.0 mi NW 6.9 mph - N/A   Clear
4:55 AM 62.6 °F 59.0 °F 88% 29.79 in 10.0 mi NW 9.2 mph - N/A   Clear
5:15 AM 62.6 °F 57.2 °F 82% 29.81 in 10.0 mi NW 6.9 mph - N/A   Clear
5:35 AM 62.6 °F 57.2 °F 82% 29.82 in 10.0 mi NNW 10.4 mph 16.1 mph N/A   Clear
5:55 AM 60.8 °F 55.4 °F 82% 29.83 in 10.0 mi NNW 10.4 mph - N/A   Clear
6:15 AM 60.8 °F 53.6 °F 77% 29.84 in 10.0 mi North 6.9 mph - N/A   Clear
8:15 AM 64.4 °F 53.6 °F 68% 29.89 in 10.0 mi NW 10.4 mph - N/A   Clear
8:35 AM 64.4 °F 53.6 °F 68% 29.89 in 10.0 mi North 10.4 mph - N/A   Clear
8:56 AM 64.4 °F 53.6 °F 68% 29.90 in 10.0 mi North 5.8 mph - N/A   Clear
9:15 AM 66.2 °F 55.4 °F 68% 29.91 in 10.0 mi North 9.2 mph - N/A   Clear
9:35 AM 66.2 °F 55.4 °F 68% 29.91 in 10.0 mi North 9.2 mph - N/A   Clear
9:55 AM 68.0 °F 55.4 °F 64% 29.92 in 10.0 mi North 10.4 mph 16.1 mph N/A   Partly Cloudy
10:15 AM 68.0 °F 55.4 °F 64% 29.92 in 10.0 mi NNW 9.2 mph - N/A   Scattered Clouds
10:35 AM 69.8 °F 55.4 °F 60% 29.93 in 10.0 mi North 12.7 mph 17.3 mph N/A   Mostly Cloudy
10:55 AM 69.8 °F 53.6 °F 56% 29.94 in 10.0 mi North 13.8 mph 19.6 mph N/A   Partly Cloudy
11:15 AM 69.8 °F 53.6 °F 56% 29.94 in 10.0 mi NNW 8.1 mph 16.1 mph N/A   Scattered Clouds
11:35 AM 69.8 °F 51.8 °F 53% 29.94 in 10.0 mi North 15.0 mph 20.7 mph N/A   Partly Cloudy
11:55 AM 71.6 °F 53.6 °F 53% 29.94 in 10.0 mi North 11.5 mph 19.6 mph N/A   Scattered Clouds
12:15 PM 71.6 °F 53.6 °F 53% 29.94 in 10.0 mi North 11.5 mph - N/A   Scattered Clouds
12:35 PM 71.6 °F 51.8 °F 50% 29.94 in 10.0 mi NNW 11.5 mph 18.4 mph N/A   Mostly Cloudy
12:55 PM 73.4 °F 51.8 °F 47% 29.94 in 10.0 mi NNW 11.5 mph 17.3 mph N/A   Mostly Cloudy
1:16 PM 71.6 °F 48.2 °F 43% 29.94 in 10.0 mi North 13.8 mph 20.7 mph N/A   Partly Cloudy
1:35 PM 73.4 °F 48.2 °F 41% 29.93 in 10.0 mi North 10.4 mph - N/A   Clear
1:55 PM 73.4 °F 50.0 °F 44% 29.94 in 10.0 mi NNE 10.4 mph 19.6 mph N/A   Clear
2:15 PM 73.4 °F 48.2 °F 41% 29.93 in 10.0 mi North 15.0 mph 18.4 mph N/A   Clear
2:35 PM 73.4 °F 48.2 °F 41% 29.94 in 10.0 mi NNW 13.8 mph 19.6 mph N/A   Partly Cloudy
2:55 PM 73.4 °F 46.4 °F 38% 29.94 in 10.0 mi North 9.2 mph 19.6 mph N/A   Clear
3:15 PM 73.4 °F 46.4 °F 38% 29.95 in 10.0 mi NNW 11.5 mph 21.9 mph N/A   Clear
3:35 PM 73.4 °F 48.2 °F 41% 29.95 in 10.0 mi NNW 11.5 mph 17.3 mph N/A   Partly Cloudy
3:55 PM 73.4 °F 48.2 °F 41% 29.95 in 10.0 mi NNW 11.5 mph 17.3 mph N/A   Scattered Clouds
4:15 PM 73.4 °F 46.4 °F 38% 29.95 in 10.0 mi North 11.5 mph 17.3 mph N/A   Partly Cloudy
4:35 PM 73.4 °F 46.4 °F 38% 29.96 in 10.0 mi North 10.4 mph 20.7 mph N/A   Partly Cloudy
4:55 PM 73.4 °F 48.2 °F 41% 29.96 in 10.0 mi NNW 11.5 mph - N/A   Scattered Clouds
5:15 PM 71.6 °F 46.4 °F 41% 29.97 in 10.0 mi NNW 12.7 mph 20.7 mph N/A   Scattered Clouds
5:35 PM 71.6 °F 46.4 °F 41% 29.98 in 10.0 mi NW 10.4 mph - N/A   Clear
5:55 PM 71.6 °F 46.4 °F 41% 29.99 in 10.0 mi NNW 9.2 mph - N/A   Clear
6:15 PM 71.6 °F 46.4 °F 41% 29.99 in 10.0 mi NNW 10.4 mph - N/A   Clear
6:35 PM 69.8 °F 46.4 °F 43% 30.00 in 10.0 mi NNW 8.1 mph - N/A   Clear
6:55 PM 68.0 °F 46.4 °F 46% 30.01 in 10.0 mi NNW 8.1 mph - N/A   Clear
7:15 PM 66.2 °F 46.4 °F 49% 30.02 in 10.0 mi NNW 8.1 mph - N/A   Clear
7:35 PM 64.4 °F 48.2 °F 56% 30.03 in 10.0 mi NNW 9.2 mph - N/A   Clear
7:55 PM 64.4 °F 46.4 °F 52% 30.03 in 10.0 mi NNW 9.2 mph - N/A   Clear
8:15 PM 62.6 °F 46.4 °F 55% 30.05 in 10.0 mi NNW 9.2 mph - N/A   Clear
8:35 PM 62.6 °F 46.4 °F 55% 30.06 in 10.0 mi North 8.1 mph - N/A   Clear
8:55 PM 62.6 °F 46.4 °F 55% 30.07 in 10.0 mi NNW 8.1 mph - N/A   Clear
9:15 PM 60.8 °F 46.4 °F 59% 30.07 in 10.0 mi NNW 9.2 mph - N/A   Clear
9:35 PM 60.8 °F 46.4 °F 59% 30.08 in 10.0 mi NNW 8.1 mph - N/A   Clear
9:55 PM 59.0 °F 46.4 °F 63% 30.09 in 10.0 mi NNW 8.1 mph - N/A   Clear
10:15 PM 57.2 °F 46.4 °F 67% 30.09 in 10.0 mi NNW 8.1 mph - N/A   Clear
10:35 PM 57.2 °F 46.4 °F 67% 30.10 in 10.0 mi NNW 6.9 mph - N/A   Clear
10:55 PM 57.2 °F 46.4 °F 67% 30.10 in 10.0 mi NNW 9.2 mph - N/A   Clear
11:15 PM 57.2 °F 46.4 °F 67% 30.10 in 10.0 mi NNW 8.1 mph - N/A   Clear
11:35 PM 57.2 °F 46.4 °F 67% 30.11 in 10.0 mi NNW 6.9 mph - N/A   Clear
11:55 PM 55.4 °F 46.4 °F 72% 30.12 in 10.0 mi NNW 8.1 mph - N/A   Clear